EW7670 Weather Reports


Display with metric or nautical units.
time (UTC)temp
F
wind
direction
speed
MPH
gust
MPH
rain 1hr
in
rain 24hr
in
rain mn
in
humidity
%
barometer
mb
20260905163045 84 251 6.0 10.0 0.00 0.04 0.00 79 1009.7
20260905151611 84 297 6.0 9.0 0.00 0.04 0.00 77 1010.1
20260905130154 81 302 10.0 14.0 0.00 0.04 0.00 81 1010.1
20260905124546 81 281 8.0 11.0 0.00 0.04 0.00 81 1010.0
20260905074540 80 317 4.0 10.0 0.00 0.04 0.00 76 1009.1
20260905070132 81 305 6.0 13.0 0.00 0.04 0.00 77 1009.0
20260905060004 81 302 11.0 20.0 0.00 0.04 0.00 82 1009.2
20260905054520 82 292 12.0 20.0 0.00 0.04 0.00 84 1009.2
20260905053007 83 200 16.0 22.0 0.00 0.04 0.00 83 1009.1
20260905051506 83 232 13.0 21.0 0.00 0.04 0.00 81 1008.8
20260905050025 83 256 17.0 24.0 0.00 0.04 0.00 82 1009.1
20260905044529 83 253 13.0 18.0 0.00 0.04 0.00 82 1009.0
20260905043104 82 223 10.0 16.0 0.00 0.04 0.00 84 1008.9
20260905041530 82 240 11.0 16.0 0.00 0.04 0.00 84 1009.1
20260905040029 82 224 10.0 16.0 0.00 0.04 0.04 81 1009.3
20260905030117 80 306 17.0 26.0 0.00 0.04 0.04 84 1011.2
20260905021515 82 295 14.0 23.0 0.00 0.04 0.04 87 1012.2
20260905013153 85 245 19.0 23.0 0.00 0.04 0.04 88 1011.6
20260905010018 84 237 10.0 13.0 0.01 0.04 0.04 89 1011.5
20260905001558 84 235 16.0 23.0 0.04 0.04 0.04 93 1010.5
20260904233133 85 243 14.0 22.0 0.00 0.00 0.00 90 1010.7
20260904223146 85 205 18.0 27.0 0.00 0.00 0.00 87 1011.0